Regional Weather Roundup
Issued by NWS

Home | Current Version | Previous Version | Graphics & Text | Print | Product List | Glossary On
Versions: 1 2 3 4 5 6 7 8 9 10 11 12 13 14 15 16 17 18 19 20 21 22 23 24 25 26 27 28 29 30 31 32 33 34 35 36 37 38 39 40 41 42 43 44 45 46 47 48 49 50
000
ASUS45 KABQ 070310
RWRNM
WEATHER ROUNDUP FOR NEW MEXICO
NATIONAL WEATHER SERVICE ALBUQUERQUE NM
900 PM MDT WED MAY 06 2015

NOTE: "FAIR" MEANS FEW OR NO CLOUDS BELOW 12,000 FEET AGL WITH NO
       SIGNIFICANT WEATHER OR OBSTRUCTIONS TO VISION.

      THIS PRODUCT IS RELEASED AS TWO VERSIONS.  ONE VERSION NEAR
      THE TOP OF THE HOUR CONTAINING PRELIMINARY DATA FROM ALBUQUERQUE
      AND OTHER STATIONS.  A FINAL VERSION WITH ADDITIONAL DATA IS
      ISSUED ABOUT 10 MINUTES AFTER THE HOUR.

NMZ501-503-504-510>518-070400-
NORTHWEST PLATEAU/NORTHCENTRAL MOUNTAINS

CITY           SKY/WX    TMP DP  RH WIND       PRES   REMARKS
FARMINGTON     CLOUDY    53  46  77 E6        29.86R
LOS ALAMOS     MOCLDY    51  35  53 CALM      29.97R
SANTA FE       MOCLDY    51  38  60 VRB3      29.91R
TAOS           CLOUDY    46  36  66 SE7       29.99R
ANGEL FIRE     DRIZZLE   43  36  75 W18G33    30.03R

$$
NMZ402-403-502-505>509-070400-
WESTCENTRAL MOUNTAINS/SOUTHWEST MOUNTAINS

CITY           SKY/WX    TMP DP  RH WIND       PRES   REMARKS
GALLUP         CLEAR     54  28  36 SW9       29.91R
GRANTS         PTCLDY    47  38  70 N5        29.95S
SILVER CITY    CLEAR     63  10  13 W8        29.91R

$$
NMZ407-409-411-412-070400-
SOUTHERN DESERTS

CITY           SKY/WX    TMP DP  RH WIND       PRES   REMARKS
LORDSBURG      FAIR      68  12  11 SW7       29.83R
DEMING         CLEAR     72  16  12 W14       29.83R
LAS CRUCES     CLEAR     64  15  15 W7        29.84R
HOLLOMAN AFB   CLEAR     69  25  19 S5        29.80R
ALAMOGORDO     CLEAR     64  32  29 S7        29.82S
T OR C         CLEAR     69  15  12 SW7       29.83R

$$
NMZ519>523-070400-
CENTRAL VALLEYS/CENTRAL HIGHLANDS

CITY           SKY/WX    TMP DP  RH WIND       PRES   REMARKS
ALBUQUERQUE    MOCLDY    61  38  42 NE7       29.87R
DOUBLE EAGLE   PTCLDY    55  37  50 W8        29.89S
MORIARTY ARPT  MOCLDY    56  37  48 N13       29.92R
CLINES CORNERS PTCLDY    50  32  50 W5        29.92R
BELEN          FAIR      59  37  44 N9        29.87R
SOCORRO        MOCLDY    65  38  36 NW9       29.82R

$$
NMZ524>526-539-540-070400-
SOUTHCENTRAL MOUNTAINS

CITY           SKY/WX    TMP DP  RH WIND       PRES   REMARKS
RUIDOSO        CLEAR     55  23  28 SW7       29.98R

$$
NMZ527>531-070400-
NORTHEAST HIGHLANDS/NORTHEAST PLAINS

CITY           SKY/WX    TMP DP  RH WIND       PRES   REMARKS
LAS VEGAS      PTCLDY    51  35  54 W10       29.91S
RATON          PTCLDY    55  35  47 SW8       29.85R
CLAYTON        MOCLDY    65  41  41 SW10      29.79R

$$
NMZ532>537-070400-
EASTCENTRAL PLAINS

CITY           SKY/WX    TMP DP  RH WIND       PRES   REMARKS
TUCUMCARI      CLEAR     64  45  49 SW12      29.76R
CANNON AFB     CLEAR     61  46  59 S9        29.81R
CLOVIS AIRPORT CLEAR     63  45  51 S12       29.81S

$$
NMZ028-029-538-070400-
SOUTHEAST PLAINS

CITY           SKY/WX    TMP DP  RH WIND       PRES   REMARKS
ROSWELL        CLEAR     65  41  41 SW12      29.77R
ARTESIA        CLEAR     66  37  34 W7        29.79R
CARLSBAD       CLEAR     66  51  58 E9        29.75R
HOBBS          CLEAR     66  50  55 SE12      29.82R


$$


USA.gov is the U.S. government's official web portal to all federal, state and local government web resources and services.